CW2969 Weather Reports


time (UTC)temp
C
wind
direction
speed
KPH
gust
KPH
rain 1hr
cm
rain 24hr
cm
rain mn
cm
humidity
%
barometer
mb
20260508015027 18 111 3.2 6.4 0.00 0.00 0.00 70 1012.3
20260508014527 18 105 1.6 6.4 0.00 0.00 0.00 70 1012.5
20260508014027 18 146 3.2 9.7 0.00 0.00 0.00 69 1012.9
20260508012527 18 78 0.0 4.8 0.00 0.00 0.00 69 1012.9
20260508010527 18 115 1.6 4.8 0.00 0.00 0.00 68 1012.6
20260508010027 19 94 1.6 4.8 0.00 0.00 0.00 68 1012.8
20260508005026 19 265 4.8 11.3 0.00 0.00 0.00 67 1012.6
20260508004026 19 93 0.0 3.2 0.00 0.00 0.00 66 1013.2
20260508003526 19 58 0.0 3.2 0.00 0.00 0.00 66 1013.4
20260508003026 20 105 0.0 3.2 0.00 0.00 0.00 66 1013.5
20260508002526 20 88 3.2 3.2 0.00 0.00 0.00 66 1013.4
20260508002026 20 95 0.0 9.7 0.00 0.00 0.00 66 1013.6
20260508001526 20 95 4.8 9.7 0.00 0.00 0.00 65 1013.8
20260508000526 20 83 1.6 4.8 0.00 0.00 0.00 65 1013.9
20260507235526 20 100 1.6 3.2 0.00 0.00 0.00 65 1014.1
20260507235026 20 11 0.0 1.6 0.00 0.00 0.00 65 1014.0
20260507234026 21 112 0.0 6.4 0.00 0.00 0.00 64 1014.3
20260507233526 21 11 3.2 6.4 0.00 0.00 0.00 64 1014.4
20260507233026 21 346 0.0 3.2 0.00 0.00 0.00 65 1014.4
20260507232526 21 198 0.0 9.7 0.00 0.00 0.00 65 1014.3
20260507232025 21 71 3.2 9.7 0.00 0.00 0.00 65 1014.0
20260507231526 21 107 0.0 4.8 0.00 0.00 0.00 65 1014.0
20260507230525 21 93 0.0 6.4 0.00 0.00 0.00 64 1014.4
20260507230025 20 188 3.2 4.8 0.00 0.00 0.00 65 1014.2
20260507225525 20 314 1.6 6.4 0.00 0.00 0.00 65 1014.2
20260507225025 20 78 3.2 6.4 0.00 0.00 0.00 65 1014.4
20260507224525 20 163 1.6 6.4 0.00 0.00 0.00 65 1014.5
20260507224025 20 130 1.6 11.3 0.00 0.00 0.00 65 1014.4
20260507223525 20 123 6.4 11.3 0.00 0.00 0.00 66 1014.6
20260507223025 20 111 0.0 4.8 0.00 0.00 0.00 66 1014.8
20260507222525 20 133 0.0 6.4 0.00 0.00 0.00 67 1014.9
20260507221525 20 113 0.0 6.4 0.00 0.00 0.00 67 1014.8
20260507221025 20 78 1.6 6.4 0.00 0.00 0.00 67 1014.7
20260507220525 20 118 1.6 4.8 0.00 0.00 0.00 66 1014.7
20260507220024 20 23 0.0 14.5 0.00 0.00 0.00 67 1014.8
20260507215524 20 5 14.5 14.5 0.00 0.00 0.00 67 1014.8
20260507214524 20 344 3.2 8.0 0.00 0.00 0.00 67 1014.4
20260507214024 20 12 1.6 6.4 0.00 0.00 0.00 67 1014.5
20260507213525 20 360 3.2 6.4 0.00 0.00 0.00 68 1014.6
20260507212524 20 355 3.2 4.8 0.00 0.00 0.00 68 1014.6
20260507212024 20 119 3.2 9.7 0.00 0.00 0.00 68 1014.9
20260507211524 20 89 6.4 9.7 0.00 0.00 0.00 68 1014.8
20260507211024 20 118 1.6 8.0 0.00 0.00 0.00 68 1014.9
20260507210524 20 88 1.6 9.7 0.00 0.00 0.00 68 1014.8
20260507210024 20 55 9.7 11.3 0.00 0.00 0.00 69 1014.6
20260507205524 20 20 6.4 11.3 0.00 0.00 0.00 69 1014.6
20260507205024 20 105 0.0 12.9 0.00 0.00 0.00 69 1014.5
20260507204524 20 336 8.0 12.9 0.00 0.00 0.00 70 1014.6
20260507204024 19 107 4.8 9.7 0.00 0.00 0.00 70 1014.8
20260507203524 19 93 1.6 11.3 0.00 0.00 0.00 71 1015.1
20260507203023 19 178 3.2 12.9 0.00 0.00 0.00 71 1015.1
20260507202524 19 12 4.8 12.9 0.00 0.00 0.00 71 1015.1
20260507201523 19 121 1.6 9.7 0.00 0.00 0.00 71 1015.5
20260507200523 19 41 9.7 16.1 0.00 0.00 0.00 73 1015.1
20260507200023 19 338 12.9 12.9 0.00 0.00 0.00 73 1015.3
20260507195524 18 55 3.2 12.9 0.00 0.00 0.00 74 1015.3
20260507195023 18 283 1.6 12.9 0.00 0.00 0.00 74 1015.5
20260507193523 18 113 4.8 9.7 0.00 0.00 0.00 75 1015.7
20260507193023 18 340 4.8 9.7 0.00 0.00 0.00 76 1015.5
20260507192523 18 138 3.2 8.0 0.00 0.00 0.00 76 1015.3
20260507192023 18 348 6.4 6.4 0.00 0.00 0.00 75 1015.6
20260507191523 18 116 3.2 4.8 0.00 0.00 0.00 75 1015.9
20260507191023 18 95 1.6 4.8 0.00 0.00 0.00 74 1015.8
20260507190523 18 59 1.6 3.2 0.00 0.00 0.00 73 1015.9
20260507190023 18 348 1.6 4.8 0.00 0.00 0.00 74 1016.2
20260507185523 18 126 1.6 8.0 0.00 0.00 0.00 73 1016.2
20260507185023 18 337 4.8 8.0 0.00 0.00 0.00 74 1016.3
20260507184523 18 5 4.8 6.4 0.00 0.00 0.00 74 1016.3
20260507184023 18 53 1.6 12.9 0.00 0.00 0.00 74 1016.4
20260507183023 18 92 1.6 6.4 0.00 0.00 0.00 75 1016.6
20260507182523 18 151 0.0 12.9 0.00 0.00 0.00 75 1016.8
20260507182022 18 148 3.2 12.9 0.00 0.00 0.00 75 1016.8
20260507181523 18 155 3.2 8.0 0.00 0.00 0.00 75 1016.5
20260507180523 17 175 1.6 4.8 0.00 0.00 0.00 76 1016.0
20260507180022 17 118 1.6 11.3 0.00 0.00 0.00 76 1015.8
20260507175523 17 303 3.2 11.3 0.00 0.00 0.00 76 1015.8
20260507174522 17 15 3.2 4.8 0.00 0.00 0.00 77 1016.3
20260507174022 17 151 1.6 9.7 0.00 0.00 0.00 78 1016.3
20260507173522 16 107 3.2 9.7 0.00 0.00 0.00 78 1016.1
20260507173022 16 330 4.8 8.0 0.00 0.00 0.00 78 1016.3
20260507172522 16 298 8.0 8.0 0.00 0.00 0.00 79 1016.2
20260507172022 16 138 3.2 8.0 0.00 0.00 0.00 79 1015.9
20260507171522 16 113 6.4 8.0 0.00 0.00 0.00 79 1016.4
20260507171022 16 147 0.0 4.8 0.00 0.00 0.00 79 1017.0
20260507170522 16 59 1.6 6.4 0.00 0.00 0.00 80 1017.2
20260507170022 16 126 3.2 6.4 0.00 0.00 0.00 80 1017.1
20260507165522 16 151 0.0 11.3 0.00 0.00 0.00 80 1017.2
20260507164522 16 89 3.2 6.4 0.00 0.00 0.00 80 1017.1
20260507164021 16 133 6.4 6.4 0.00 0.00 0.00 80 1017.3
20260507163522 16 355 4.8 12.9 0.00 0.00 0.00 81 1017.3
20260507163021 16 19 3.2 12.9 0.00 0.00 0.00 80 1016.9
20260507162522 16 34 9.7 9.7 0.00 0.00 0.00 80 1016.8
20260507162021 16 155 3.2 11.3 0.00 0.00 0.00 80 1017.3
20260507160522 16 160 6.4 14.5 0.00 0.00 0.00 80 1016.9
20260507160022 16 316 6.4 14.5 0.00 0.00 0.00 80 1016.7
20260507155521 16 315 4.8 12.9 0.00 0.00 0.00 80 1017.0
20260507155021 16 336 3.2 12.9 0.00 0.00 0.00 80 1017.0
20260507154021 16 334 4.8 8.0 0.00 0.00 0.00 80 1017.1
20260507153521 16 40 0.0 6.4 0.00 0.00 0.00 81 1017.4
20260507153021 16 351 4.8 6.4 0.00 0.00 0.00 81 1017.4
20260507152521 16 96 3.2 17.7 0.00 0.00 0.00 81 1017.4
20260507151521 16 117 6.4 14.5 0.00 0.00 0.00 81 1017.3
20260507151021 16 94 3.2 6.4 0.00 0.00 0.00 81 1017.3
20260507150521 16 144 3.2 8.0 0.00 0.00 0.00 81 1017.3
20260507150020 16 360 3.2 14.5 0.00 0.00 0.00 81 1017.2
20260507145521 16 330 9.7 14.5 0.00 0.00 0.00 81 1017.3
20260507145020 16 316 8.0 17.7 0.00 0.00 0.00 81 1017.0
20260507144520 16 334 14.5 17.7 0.00 0.00 0.00 81 1017.0
20260507144020 16 102 4.8 17.7 0.00 0.00 0.00 81 1017.0
20260507143020 16 49 1.6 9.7 0.00 0.00 0.00 81 1017.1
20260507142520 16 336 8.0 9.7 0.00 0.00 0.00 81 1016.9
20260507142020 16 344 8.0 9.7 0.00 0.00 0.00 82 1017.2
20260507141520 16 78 0.0 4.8 0.00 0.00 0.00 82 1017.3
20260507141020 16 355 3.2 8.0 0.00 0.00 0.00 82 1016.8
20260507140520 16 340 8.0 9.7 0.00 0.00 0.00 82 1016.5
20260507140020 16 321 4.8 16.1 0.00 0.00 0.00 82 1016.7
20260507135520 16 360 16.1 16.1 0.00 0.00 0.00 82 1017.1
20260507135020 16 138 4.8 14.5 0.00 0.00 0.00 82 1016.9
20260507134520 16 327 1.6 11.3 0.00 0.00 0.00 82 1016.8
20260507134019 16 27 4.8 11.3 0.00 0.00 0.00 82 1016.5
20260507132520 16 40 1.6 8.0 0.00 0.00 0.00 82 1016.2
20260507132019 16 355 3.2 9.7 0.00 0.00 0.00 82 1016.2
20260507131519 16 338 1.6 9.7 0.00 0.00 0.00 82 1016.0
20260507131020 16 348 3.2 9.7 0.00 0.00 0.00 82 1016.1
20260507130019 16 327 6.4 12.9 0.00 0.00 0.00 82 1016.4
20260507125519 16 337 0.0 12.9 0.00 0.00 0.00 82 1016.2
20260507125019 16 348 9.7 12.9 0.00 0.00 0.00 82 1016.2
20260507124519 16 102 6.4 12.9 0.00 0.00 0.00 82 1016.3
20260507124019 16 106 3.2 8.0 0.00 0.00 0.00 82 1016.2
20260507123019 16 25 1.6 6.4 0.00 0.00 0.00 82 1016.3
20260507122519 16 166 1.6 12.9 0.00 0.00 0.00 82 1016.0
20260507122019 16 21 6.4 12.9 0.00 0.00 0.00 82 1016.0
20260507121519 16 212 3.2 17.7 0.00 0.00 0.00 82 1015.8
20260507120519 16 349 6.4 12.9 0.00 0.00 0.00 82 1015.5
20260507120019 16 35 8.0 12.9 0.00 0.00 0.00 82 1015.5
20260507115519 16 55 1.6 12.9 0.00 0.00 0.00 82 1015.3
20260507114518 16 338 12.9 16.1 0.00 0.00 0.00 82 1015.3
20260507114018 16 113 3.2 22.5 0.00 0.00 0.00 82 1015.2
20260507113518 16 59 16.1 22.5 0.00 0.00 0.00 82 1015.2
20260507113018 16 333 4.8 6.4 0.00 0.00 0.00 82 1015.4
20260507112018 16 28 0.0 9.7 0.00 0.00 0.00 82 1015.2
20260507110518 16 331 1.6 17.7 0.00 0.00 0.00 82 1015.3
20260507110018 16 82 1.6 17.7 0.00 0.00 0.00 82 1015.0
20260507105518 16 5 1.6 12.9 0.00 0.00 0.00 82 1015.3
20260507105018 16 336 12.9 12.9 0.00 0.00 0.00 82 1015.4
20260507104518 16 345 4.8 9.7 0.00 0.00 0.00 81 1015.4
20260507104018 16 317 9.7 9.7 0.00 0.00 0.00 81 1015.1
20260507103518 16 337 1.6 11.3 0.00 0.00 0.00 81 1015.1
20260507103018 16 11 1.6 11.3 0.00 0.00 0.00 81 1014.8
20260507102518 16 86 0.0 6.4 0.00 0.00 0.00 81 1014.8
20260507101518 16 232 6.4 6.4 0.00 0.00 0.00 81 1014.7
20260507101018 16 273 4.8 8.0 0.00 0.00 0.00 81 1014.9
20260507100518 16 115 0.0 8.0 0.00 0.00 0.00 81 1014.7
20260507095018 16 360 6.4 9.7 0.00 0.00 0.00 81 1014.9
20260507094017 16 97 0.0 16.1 0.00 0.00 0.00 81 1014.5
20260507093517 16 40 3.2 16.1 0.00 0.00 0.00 81 1014.7
20260507093018 16 351 4.8 8.0 0.00 0.00 0.00 80 1014.5
20260507092517 16 303 6.4 8.0 0.00 0.00 0.00 80 1014.4
20260507092017 16 331 4.8 6.4 0.00 0.00 0.00 80 1014.5
20260507091517 16 101 1.6 12.9 0.00 0.00 0.00 80 1014.5
20260507091017 16 29 1.6 12.9 0.00 0.00 0.00 80 1014.3
20260507090517 16 336 3.2 6.4 0.00 0.00 0.00 80 1014.4
20260507090017 16 333 4.8 4.8 0.00 0.00 0.00 80 1014.3
20260507085517 16 355 0.0 4.8 0.00 0.00 0.00 80 1014.3
20260507085017 16 41 0.0 6.4 0.00 0.00 0.00 80 1014.4
20260507084517 16 110 0.0 6.4 0.00 0.00 0.00 80 1014.2
20260507084017 16 74 1.6 4.8 0.00 0.00 0.00 80 1014.1
20260507083516 16 86 0.0 4.8 0.00 0.00 0.00 80 1014.2
20260507082516 16 128 0.0 6.4 0.00 0.00 0.00 80 1014.3
20260507082017 16 11 3.2 4.8 0.00 0.00 0.00 80 1014.4
20260507081517 16 59 1.6 4.8 0.00 0.00 0.00 80 1014.1
20260507081016 16 310 3.2 4.8 0.00 0.00 0.00 80 1014.0
20260507080517 16 342 0.0 4.8 0.00 0.00 0.00 80 1013.9
20260507080017 16 78 1.6 4.8 0.00 0.00 0.00 80 1013.8
20260507075517 17 80 0.0 4.8 0.00 0.00 0.00 80 1014.0
20260507075016 16 46 0.0 6.4 0.00 0.00 0.00 80 1014.2
20260507074516 17 150 1.6 6.4 0.00 0.00 0.00 80 1013.8
20260507074016 17 48 3.2 9.7 0.00 0.00 0.00 80 1013.9
20260507073016 17 355 3.2 6.4 0.00 0.00 0.00 79 1013.7
20260507072016 17 187 6.4 8.0 0.00 0.00 0.00 79 1014.2
20260507071516 17 329 3.2 4.8 0.00 0.00 0.00 79 1013.7
20260507071016 17 98 4.8 6.4 0.00 0.00 0.00 79 1013.8
20260507070016 17 262 4.8 4.8 0.00 0.00 0.00 79 1014.1
20260507065516 17 110 3.2 11.3 0.00 0.00 0.00 79 1014.3
20260507065016 17 87 1.6 11.3 0.00 0.00 0.00 79 1014.0
20260507064516 17 165 1.6 9.7 0.00 0.00 0.00 79 1014.2
20260507064016 17 123 4.8 9.7 0.00 0.00 0.00 79 1014.3
20260507063516 17 103 4.8 14.5 0.00 0.00 0.00 79 1014.2
20260507063016 17 273 11.3 14.5 0.00 0.00 0.00 79 1014.0
20260507061515 17 99 9.7 19.3 0.00 0.00 0.00 78 1013.9
20260507061015 17 144 1.6 6.4 0.00 0.00 0.00 78 1014.0
20260507060516 17 114 3.2 9.7 0.00 0.00 0.00 78 1013.9
20260507060015 17 5 3.2 9.7 0.00 0.00 0.00 78 1013.8
20260507055515 17 330 1.6 6.4 0.00 0.00 0.00 78 1013.6
20260507055015 17 96 3.2 6.4 0.00 0.00 0.00 78 1013.7
20260507054515 17 113 4.8 4.8 0.00 0.00 0.00 78 1013.8
20260507054015 17 86 1.6 9.7 0.00 0.00 0.00 78 1013.9
20260507053515 17 261 3.2 9.7 0.00 0.00 0.00 78 1013.9
20260507053015 17 86 1.6 8.0 0.00 0.00 0.00 78 1013.7
20260507052515 17 94 6.4 8.0 0.00 0.00 0.00 78 1013.9
20260507051515 17 322 4.8 12.9 0.00 0.00 0.00 78 1013.4
20260507051014 17 346 3.2 8.0 0.00 0.00 0.00 78 1013.6
20260507050514 17 76 3.2 8.0 0.00 0.00 0.00 78 1013.5
20260507050014 17 207 3.2 8.0 0.00 0.00 0.00 78 1013.6
20260507045515 17 125 3.2 9.7 0.00 0.00 0.00 78 1013.7
20260507044514 17 123 1.6 8.0 0.00 0.00 0.00 78 1013.6
20260507044014 17 11 3.2 8.0 0.00 0.00 0.00 78 1013.4
20260507043514 17 96 4.8 9.7 0.00 0.00 0.00 78 1013.7
20260507043014 17 84 1.6 9.7 0.00 0.00 0.00 78 1013.7
20260507042514 17 333 3.2 9.7 0.00 0.00 0.00 78 1013.8
20260507042014 17 25 1.6 9.7 0.00 0.00 0.00 78 1013.7
20260507041514 17 325 1.6 8.0 0.00 0.00 0.00 78 1013.6
20260507041013 17 327 3.2 14.5 0.00 0.00 0.00 78 1013.5
20260507040513 17 344 3.2 14.5 0.00 0.00 0.00 78 1013.3
20260507035513 17 314 4.8 11.3 0.00 0.00 0.00 78 1013.4
20260507035013 18 339 4.8 11.3 0.00 0.00 0.00 78 1013.9
20260507034513 18 27 4.8 9.7 0.00 0.00 0.00 78 1013.7
20260507034013 18 355 6.4 11.3 0.00 0.00 0.00 78 1013.5
20260507033513 18 110 4.8 17.7 0.00 0.00 0.00 78 1013.5
20260507033013 18 355 8.0 17.7 0.00 0.00 0.00 78 1013.3
20260507031513 18 321 3.2 8.0 0.00 0.00 0.00 78 1013.5
20260507031013 18 308 3.2 12.9 0.00 0.00 0.00 78 1013.6
20260507030513 18 324 1.6 12.9 0.00 0.00 0.00 77 1013.5
20260507030013 18 214 6.4 12.9 0.00 0.00 0.00 77 1013.2
20260507025513 18 143 4.8 11.3 0.00 0.00 0.00 77 1012.9
20260507025013 18 115 1.6 11.3 0.00 0.00 0.00 77 1013.0
20260507024513 18 107 4.8 9.7 0.00 0.00 0.00 77 1012.8
20260507024013 18 350 9.7 9.7 0.00 0.00 0.00 77 1012.7
20260507023513 18 80 1.6 6.4 0.00 0.00 0.00 77 1013.0
20260507023013 18 355 1.6 11.3 0.00 0.00 0.00 77 1013.0
20260507022513 18 344 1.6 11.3 0.00 0.00 0.00 77 1012.9
20260507021512 18 144 1.6 9.7 0.00 0.00 0.00 77 1012.4
20260507021013 18 327 1.6 4.8 0.00 0.00 0.00 77 1012.3
20260507020513 18 280 0.0 4.8 0.00 0.00 0.00 77 1012.4
20260507020012 18 101 0.0 4.8 0.00 0.00 0.00 77 1012.4
20260507015513 18 114 1.6 4.8 0.00 0.00 0.00 77 1012.3